When you browse on this site, cookies collect data to enhance your experience and personalize the content and advertising you see.
Visit our Privacy Policy to learn more. By continuing to use the site, you agree to this use of cookies and data.
  • In United Kingdom
  • List of Countries
  • For 7 days
  • Water Temperature
  • Satellite Maps
  • Weather Map
  • Weather Widgets
  • user-avatar
    Login

    Hourly Weather Tatabanya

    Today, 20 June, Thursday

    Time Temperature Precipitation Wind Pressure Humidity
    00:00 +20°C° 0.1 mm 1 mps 738 mmHg 86%
    01:00 +20°C° 0.1 mm 1 mps 738 mmHg 86%
    02:00 +18°C° 0.1 mm 0 mps 738 mmHg 87%
    03:00 +18°C° 0.1 mm 0 mps 738 mmHg 88%
    04:00 +17°C° 0.1 mm 0 mps 738 mmHg 89%
    05:00 +19°C° 0 mm 0 mps 738 mmHg 86%
    06:00 +20°C° 0 mm 0 mps 738 mmHg 83%
    07:00 +22°C° 0 mm 0 mps 738 mmHg 80%
    08:00 +23°C° 0.3 mm 0 mps 738 mmHg 75%
    09:00 +26°C° 0.3 mm 1 mps 738 mmHg 71%
    10:00 +27°C° 0.3 mm 1 mps 738 mmHg 66%
    11:00 +28°C° 0.4 mm 1 mps 738 mmHg 63%
    12:00 +28°C° 0.4 mm 1 mps 738 mmHg 60%
    13:00 +29°C° 0.4 mm 1 mps 738 mmHg 57%
    14:00 +29°C° 0 mm 1 mps 738 mmHg 56%
    15:00 +29°C° 0 mm 1 mps 738 mmHg 56%
    16:00 +29°C° 0 mm 1 mps 737 mmHg 56%
    17:00 +28°C° 0.1 mm 1 mps 737 mmHg 61%
    18:00 +27°C° 0.1 mm 1 mps 737 mmHg 66%
    19:00 +25°C° 0.1 mm 1 mps 737 mmHg 71%
    20:00 +24°C° 0.1 mm 1 mps 738 mmHg 73%
    21:00 +21°C° 0.1 mm 0 mps 738 mmHg 75%
    22:00 +20°C° 0.1 mm 0 mps 738 mmHg 77%
    23:00 +21°C° 0.2 mm 1 mps 738 mmHg 82%

    Tomorrow, 21 June, Friday

    Time Temperature Precipitation Wind Pressure Humidity
    00:00 +19°C° 0.2 mm 2 mps 738 mmHg 87%
    01:00 +18°C° 0.2 mm 3 mps 739 mmHg 92%
    02:00 +18°C° 0 mm 3 mps 739 mmHg 94%
    03:00 +17°C° 0 mm 2 mps 739 mmHg 95%
    04:00 +17°C° 0 mm 2 mps 739 mmHg 96%
    05:00 +18°C° 0 mm 3 mps 739 mmHg 94%
    06:00 +19°C° 0 mm 3 mps 740 mmHg 91%
    07:00 +20°C° 0 mm 3 mps 740 mmHg 88%
    08:00 +22°C° 0 mm 4 mps 740 mmHg 83%
    09:00 +23°C° 0 mm 4 mps 740 mmHg 78%
    10:00 +26°C° 0 mm 4 mps 741 mmHg 73%
    11:00 +27°C° 0 mm 4 mps 740 mmHg 70%
    12:00 +27°C° 0 mm 4 mps 740 mmHg 67%
    13:00 +28°C° 0 mm 4 mps 740 mmHg 64%
    14:00 +28°C° 0.4 mm 4 mps 740 mmHg 65%
    15:00 +28°C° 0.4 mm 3 mps 740 mmHg 66%
    16:00 +28°C° 0.4 mm 3 mps 740 mmHg 66%
    17:00 +27°C° 0.3 mm 3 mps 739 mmHg 72%
    18:00 +25°C° 0.3 mm 2 mps 739 mmHg 77%
    19:00 +24°C° 0.3 mm 2 mps 739 mmHg 82%
    20:00 +23°C° 0 mm 2 mps 740 mmHg 85%
    21:00 +21°C° 0 mm 2 mps 740 mmHg 88%
    22:00 +20°C° 0 mm 2 mps 740 mmHg 91%
    23:00 +19°C° 0 mm 2 mps 740 mmHg 92%

    Day after tomorrow, 22 June, Saturday

    Time Temperature Precipitation Wind Pressure Humidity
    00:00 +20°C° 0 mm 1 mps 740 mmHg 93%
    01:00 +19°C° 0 mm 1 mps 740 mmHg 94%
    02:00 +19°C° 0 mm 1 mps 740 mmHg 94%
    03:00 +19°C° 0 mm 1 mps 740 mmHg 95%
    04:00 +18°C° 0 mm 1 mps 740 mmHg 95%
    05:00 +20°C° 0 mm 1 mps 740 mmHg 92%
    06:00 +21°C° 0 mm 1 mps 741 mmHg 89%
    07:00 +22°C° 0 mm 1 mps 741 mmHg 85%
    08:00 +24°C° 0.2 mm 1 mps 741 mmHg 80%
    09:00 +25°C° 0.2 mm 1 mps 741 mmHg 76%
    10:00 +27°C° 0.2 mm 1 mps 741 mmHg 71%
    11:00 +28°C° 0.2 mm 1 mps 741 mmHg 66%
    12:00 +29°C° 0.2 mm 1 mps 740 mmHg 62%
    13:00 +29°C° 0.2 mm 1 mps 740 mmHg 57%
    14:00 +29°C° 0.6 mm 1 mps 740 mmHg 57%
    15:00 +29°C° 0.6 mm 1 mps 739 mmHg 57%
    16:00 +29°C° 0.6 mm 1 mps 739 mmHg 57%
    17:00 +27°C° 0.8 mm 1 mps 739 mmHg 64%
    18:00 +26°C° 0.8 mm 1 mps 739 mmHg 72%
    19:00 +24°C° 0.8 mm 2 mps 738 mmHg 79%
    20:00 +23°C° 0.6 mm 2 mps 738 mmHg 81%
    21:00 +21°C° 0.6 mm 2 mps 739 mmHg 83%
    22:00 +20°C° 0.6 mm 2 mps 739 mmHg 85%
    23:00 +20°C° 1.4 mm 2 mps 739 mmHg 87%

    23 June, Sunday

    Time Temperature Precipitation Wind Pressure Humidity
    00:00 +21°C° 1.4 mm 1 mps 738 mmHg 89%
    01:00 +20°C° 1.4 mm 1 mps 738 mmHg 91%
    02:00 +20°C° 0.7 mm 1 mps 738 mmHg 92%
    03:00 +20°C° 0.7 mm 1 mps 738 mmHg 93%
    04:00 +20°C° 0.7 mm 1 mps 738 mmHg 94%
    05:00 +20°C° 0.2 mm 1 mps 739 mmHg 92%
    06:00 +21°C° 0.2 mm 1 mps 739 mmHg 90%
    07:00 +22°C° 0.2 mm 1 mps 739 mmHg 88%
    08:00 +23°C° 1.8 mm 1 mps 739 mmHg 86%
    09:00 +24°C° 1.8 mm 2 mps 740 mmHg 83%
    10:00 +25°C° 1.8 mm 2 mps 740 mmHg 81%
    11:00 +25°C° 1.8 mm 2 mps 740 mmHg 78%
    12:00 +26°C° 1.8 mm 3 mps 740 mmHg 76%
    13:00 +26°C° 1.8 mm 3 mps 740 mmHg 73%
    14:00 +26°C° 1.9 mm 3 mps 740 mmHg 76%
    15:00 +26°C° 1.9 mm 3 mps 740 mmHg 78%
    16:00 +25°C° 1.9 mm 4 mps 740 mmHg 81%
    17:00 +23°C° 0.6 mm 4 mps 740 mmHg 83%
    18:00 +22°C° 0.6 mm 3 mps 741 mmHg 85%
    19:00 +21°C° 0.6 mm 3 mps 741 mmHg 87%
    20:00 +21°C° 0.6 mm 3 mps 741 mmHg 87%
    21:00 +20°C° 0.6 mm 3 mps 742 mmHg 87%
    22:00 +19°C° 0.6 mm 2 mps 742 mmHg 87%
    23:00 +19°C° 0 mm 2 mps 742 mmHg 89%

    24 June, Monday

    Time Temperature Precipitation Wind Pressure Humidity
    00:00 +18°C° 0 mm 2 mps 743 mmHg 91%
    01:00 +18°C° 0 mm 2 mps 743 mmHg 94%
    02:00 +17°C° 0 mm 2 mps 743 mmHg 95%
    03:00 +17°C° 0 mm 2 mps 743 mmHg 96%
    04:00 +17°C° 0 mm 2 mps 743 mmHg 96%
    05:00 +17°C° 0 mm 2 mps 743 mmHg 94%
    06:00 +18°C° 0 mm 2 mps 744 mmHg 92%
    07:00 +19°C° 0 mm 3 mps 744 mmHg 89%
    08:00 +21°C° 0 mm 3 mps 744 mmHg 85%
    09:00 +22°C° 0 mm 3 mps 744 mmHg 81%
    10:00 +25°C° 0 mm 3 mps 744 mmHg 76%
    11:00 +26°C° 0 mm 3 mps 744 mmHg 73%
    12:00 +26°C° 0 mm 3 mps 744 mmHg 69%
    13:00 +27°C° 0 mm 3 mps 744 mmHg 65%
    14:00 +27°C° 0.3 mm 3 mps 744 mmHg 67%
    15:00 +28°C° 0.3 mm 3 mps 744 mmHg 68%
    16:00 +28°C° 0.3 mm 3 mps 744 mmHg 69%
    17:00 +27°C° 0.5 mm 2 mps 744 mmHg 74%
    18:00 +25°C° 0.5 mm 2 mps 744 mmHg 79%
    19:00 +24°C° 0.5 mm 1 mps 744 mmHg 83%
    20:00 +23°C° 0 mm 2 mps 744 mmHg 84%
    21:00 +21°C° 0 mm 2 mps 745 mmHg 84%
    22:00 +20°C° 0 mm 2 mps 745 mmHg 85%
    23:00 +20°C° 0 mm 2 mps 745 mmHg 86%

    25 June, Tuesday

    Time Temperature Precipitation Wind Pressure Humidity
    00:00 +19°C° 0 mm 2 mps 745 mmHg 86%
    01:00 +19°C° 0 mm 2 mps 745 mmHg 87%
    02:00 +19°C° 0 mm 2 mps 745 mmHg 88%
    03:00 +19°C° 0 mm 1 mps 745 mmHg 89%
    04:00 +19°C° 0 mm 1 mps 745 mmHg 90%
    05:00 +20°C° 0 mm 1 mps 745 mmHg 87%
    06:00 +22°C° 0 mm 1 mps 746 mmHg 84%
    07:00 +23°C° 0 mm 2 mps 746 mmHg 81%
    08:00 +24°C° 0 mm 2 mps 746 mmHg 76%
    09:00 +26°C° 0 mm 2 mps 746 mmHg 71%
    10:00 +27°C° 0 mm 2 mps 746 mmHg 66%
    11:00 +28°C° 0 mm 2 mps 746 mmHg 64%
    12:00 +29°C° 0 mm 2 mps 746 mmHg 62%
    13:00 +29°C° 0 mm 2 mps 746 mmHg 59%
    14:00 +29°C° 0 mm 2 mps 746 mmHg 59%
    15:00 +30°C° 0 mm 2 mps 745 mmHg 60%
    16:00 +30°C° 0 mm 2 mps 745 mmHg 60%
    17:00 +28°C° 0 mm 2 mps 745 mmHg 65%
    18:00 +27°C° 0 mm 1 mps 745 mmHg 70%
    19:00 +26°C° 0 mm 1 mps 745 mmHg 75%
    20:00 +25°C° 0 mm 1 mps 746 mmHg 78%
    21:00 +24°C° 0 mm 1 mps 746 mmHg 81%
    22:00 +23°C° 0 mm 1 mps 746 mmHg 83%
    23:00 +21°C° 0 mm 0 mps 746 mmHg 85%
    Show more